Location: ???????????
(54.6970°N, 39.1477°E)
Time: 04:07:18
(UTC+00:00)

Cosmos 158 Rocket - Pass Details

Date: 19 May 2025
Orbit: 694 x 787 km, 74.0° (Epoch: 15 June)

Event Time Altitude Azimuth Distance (km) Brightness Sun altitude
Rises 18:53:12 0° 208° (SSW) 3,241 7.0 -9.0°
Reaches altitude 10° 18:55:33 10° 209° (SSW) 2,327 6.2 -9.2°
Maximum altitude 19:00:53 83° 297° (WNW) 799 4.2 -9.7°
Drops below altitude 10° 19:06:17 10° 26° (NNE) 2,362 7.0 -10.1°
Sets 19:08:42 0° 28° (NNE) 3,293 7.7 -10.3°
